Beckley, WV

9:25 AM EDT on September 19, 2019 (GMT -0400)
Raleigh County Memorial

Weather History for KBKW - July, 2019

Change the Weather History Date:

Tuesday, July 16, 2019

  Actual Average Record
Temperature  
Mean Temperature 75 °F 71 °F  
Max Temperature 84 °F 80 °F 96 °F (1912)
Min Temperature 66 °F 62 °F 42 °F (1939)
Degree Days  
Heating Degree Days 0 0  
Month to date heating degree days 0 0  
Since 1 June heating degree days 33 39  
Since 1 July heating degree days 0 0  
Cooling Degree Days 10 6  
Month to date cooling degree days 165 96  
Year to date cooling degree days 391 248  
Since 1 June cooling degree days 271 207  
Growing Degree Days 25 (Base 50)    
Moisture  
Dew Point 65 °F    
Average Humidity 72    
Maximum Humidity 93    
Minimum Humidity 51    
Precipitation  
Precipitation 0.00 in 0.18 in 1.76 in (1932)
Month to date precipitation 2.44 2.54  
Year to date precipitation 25.33 23.70  
Sea Level Pressure  
Sea Level Pressure 30.09 in    
Wind  
Wind Speed 4 mph (SSW)    
Max Wind Speed 12 mph    
Max Gust Speed 15 mph    
Visibility 10 miles    
Events      
T = Trace of Precipitation, MM = Missing Value Source: NWS Daily Summary

Daily Weather History Graph

Daily Weather History Graph

Search for Another Location

Airport or City:

Astronomy

Jul. 16, 2019 Rise Set
Actual Time 6:15 AM EDT 8:45 PM EDT
Civil Twilight 5:44 AM EDT 9:15 PM EDT
Nautical Twilight 5:07 AM EDT 9:53 PM EDT
Astronomical Twilight 4:25 AM EDT 10:35 PM EDT
Moon 8:50 PM EDT (7/16) 5:52 AM EDT (7/16)
Length of Visible Light 15h 31m
Length of Day
14h 30m
Full, 100% of the Moon is Illuminated
Jul 16
Full
Jul 16
Full
Jul 24
Last Quarter
Jul 31
New
Aug 7
First Quarter

Hourly Weather History & Observations

Time (EDT) Temp. Heat Index Dew Point Humidity Pressure Visibility Wind Dir Wind Speed Gust Speed Precip Events Conditions
12:51 AM 69.1 °F - 66.9 °F 93% 30.10 in 8.0 mi Calm Calm - N/A   Clear
1:51 AM 69.1 °F - 66.0 °F 90% 30.09 in 10.0 mi Calm Calm - N/A   Clear
2:51 AM 68.0 °F - 66.0 °F 93% 30.09 in 10.0 mi Calm Calm - N/A   Clear
3:51 AM 66.9 °F - 64.9 °F 93% 30.09 in 4.0 mi Calm Calm - N/A   Clear
4:51 AM 68.0 °F - 64.9 °F 90% 30.09 in 10.0 mi Calm Calm - N/A   Clear
5:51 AM 68.0 °F - 66.0 °F 93% 30.10 in 10.0 mi Calm Calm - N/A   Scattered Clouds
6:51 AM 69.1 °F - 66.0 °F 90% 30.11 in 10.0 mi Calm Calm - N/A   Clear
7:51 AM 71.1 °F - 66.9 °F 87% 30.12 in 10.0 mi Calm Calm - N/A   Clear
8:51 AM 73.0 °F - 66.9 °F 81% 30.12 in 10.0 mi SSE 3.5 mph - N/A   Clear
9:51 AM 78.1 °F - 68.0 °F 71% 30.14 in 10.0 mi SW 5.8 mph - N/A   Clear
10:51 AM 78.1 °F - 68.0 °F 71% 30.14 in 10.0 mi WSW 4.6 mph - N/A   Clear
11:51 AM 80.1 °F 82.1 °F 66.0 °F 62% 30.13 in 10.0 mi SW 5.8 mph - N/A   Clear
12:51 PM 80.1 °F 81.7 °F 64.0 °F 58% 30.13 in 10.0 mi WSW 6.9 mph - N/A   Clear
1:51 PM 82.0 °F 83.8 °F 64.9 °F 56% 30.11 in 10.0 mi SW 6.9 mph - N/A   Clear
2:51 PM 81.0 °F 82.7 °F 64.9 °F 58% 30.10 in 10.0 mi WSW 3.5 mph - N/A   Clear
3:51 PM 82.0 °F 83.4 °F 64.0 °F 54% 30.08 in 10.0 mi SW 4.6 mph - N/A   Clear
4:51 PM 82.9 °F 83.7 °F 62.1 °F 49% 30.05 in 10.0 mi SSW 5.8 mph - N/A   Clear
5:51 PM 82.9 °F 84.4 °F 64.0 °F 53% 30.03 in 10.0 mi South 5.8 mph - N/A   Clear
6:51 PM 82.9 °F 84.6 °F 64.9 °F 54% 30.03 in 10.0 mi South 5.8 mph - N/A   Mostly Cloudy
7:51 PM 82.0 °F 83.8 °F 64.9 °F 56% 30.03 in 10.0 mi SSW 5.8 mph - N/A   Clear
8:51 PM 78.1 °F - 63.0 °F 60% 30.04 in 10.0 mi SSW 5.8 mph - N/A   Clear
9:51 PM 75.0 °F - 62.1 °F 64% 30.05 in 10.0 mi South 3.5 mph - N/A   Clear
10:51 PM 73.9 °F - 61.0 °F 64% 30.05 in 10.0 mi South 5.8 mph - N/A   Clear
11:51 PM 73.9 °F - 61.0 °F 64% 30.05 in 10.0 mi SSE 6.9 mph - N/A   Clear